Location: Freemans Gardens
(41.6414°N, 83.6077°W)
Time: 03:08:02
(UTC+00:00)

ATLAS 2AS CENTAUR R/B - Pass Details

Date: 29 October 2020
Orbit: 939 x 1273 km, 63.7° (Epoch: 23 November)

Event Time Altitude Azimuth Distance (km) Brightness Sun altitude
Rises 23:35:57 0° 326° (NW) 4,171 6.2 -12.4°
Reaches altitude 10° 23:39:28 10° 339° (NNW) 3,159 5.3 -13.1°
Maximum altitude 23:45:28 25° 32° (NNE) 2,164 4.0 -14.2°
Enters shadow 23:48:38 19° 67° (ENE) 2,427 4.0 -14.8°
